Change the Weather History Date:

Sunday, March 31, 2013

  Actual Average Record
Temperature  
Mean Temperature 32 °F -  
Max Temperature 39 °F 40 °F 68 °F (1967)
Min Temperature 26 °F 24 °F 1 °F (1969)
Degree Days  
Heating Degree Days 32    
Moisture  
Dew Point 21 °F    
Average Humidity 60    
Maximum Humidity 87    
Minimum Humidity 38    
Precipitation  
Precipitation 0.00 in - - ()
Sea Level Pressure  
Sea Level Pressure 29.82 in    
Wind  
Wind Speed 15 mph (WNW)    
Max Wind Speed 28 mph    
Max Gust Speed 31 mph    
Visibility 10 miles    
Events      
Averages and records for this station are not official NWS values.
T = Trace of Precipitation, MM = Missing Value Source: NWS Daily Summary

Daily Weather History Graph

Daily Weather History Graph

Search for Another Location

Airport or City:

Trip Planner

Search our weather history database for the weather conditions in past years. The results will help you decide how hot, cold, wet, or windy it might be!

Date:

Astronomy

Mar. 31, 2013 Rise Set
Actual Time 6:48 AM CDT 7:36 PM CDT
Civil Twilight 6:18 AM CDT 8:07 PM CDT
Nautical Twilight 5:41 AM CDT 8:43 PM CDT
Astronomical Twilight 5:03 AM CDT 9:21 PM CDT
Moon No Moon Rise 9:21 AM CDT (3/31)
Length of Visible Light 13h 48m
Length of Day
12h 47m
Waning Gibbous, 77% of the Moon is Illuminated
Mar 31
Waning Gibbous
Apr 2
Last Quarter
Apr 10
New
Apr 18
First Quarter
Apr 25
Full

Hourly Weather History & Observations

Time (CDT) Temp. Windchill Dew Point Humidity Pressure Visibility Wind Dir Wind Speed Gust Speed Precip Events Conditions
12:14 AM 39.2 °F 31.2 °F 28.4 °F 65% 29.76 in 10.0 mi WNW 13.8 mph - N/A   Mostly Cloudy
12:33 AM 39.2 °F 31.6 °F 28.4 °F 65% 29.76 in 10.0 mi WNW 12.7 mph - N/A   Mostly Cloudy
12:53 AM 39.2 °F 31.6 °F 28.4 °F 65% 29.76 in 10.0 mi West 12.7 mph - N/A   Overcast
1:14 AM 39.2 °F 32.0 °F 28.4 °F 65% 29.76 in 10.0 mi West 11.5 mph - N/A   Overcast
1:33 AM 39.2 °F 33.6 °F 28.4 °F 65% 29.75 in 10.0 mi West 8.1 mph - N/A   Overcast
1:53 AM 37.4 °F 30.8 °F 28.4 °F 70% 29.75 in 10.0 mi West 9.2 mph - N/A   Overcast
2:14 AM 37.4 °F 28.2 °F 28.4 °F 70% 29.75 in 10.0 mi West 16.1 mph - N/A   Overcast
2:33 AM 37.4 °F 27.5 °F 28.4 °F 70% 29.74 in 10.0 mi West 18.4 mph - N/A   Overcast
2:53 AM 37.4 °F 27.8 °F 28.4 °F 70% 29.75 in 10.0 mi West 17.3 mph - N/A   Overcast
3:14 AM 37.4 °F 28.9 °F 28.4 °F 70% 29.75 in 10.0 mi West 13.8 mph - N/A   Overcast
3:34 AM 37.4 °F 28.2 °F 28.4 °F 70% 29.74 in 10.0 mi West 16.1 mph - N/A   Overcast
3:53 AM 35.6 °F 25.9 °F 30.2 °F 81% 29.73 in 10.0 mi WNW 16.1 mph - N/A   Overcast
4:14 AM 35.6 °F 28.6 °F 30.2 °F 81% 29.73 in 10.0 mi West 9.2 mph - N/A   Overcast
4:34 AM 35.6 °F 27.5 °F 30.2 °F 81% 29.72 in 10.0 mi West 11.5 mph - N/A   Overcast
4:53 AM 35.6 °F 27.5 °F 30.2 °F 81% 29.72 in 10.0 mi West 11.5 mph - N/A   Overcast
5:14 AM 35.6 °F 27.5 °F 28.4 °F 75% 29.71 in 10.0 mi West 11.5 mph - N/A   Overcast
5:34 AM 35.6 °F 28.0 °F 28.4 °F 75% 29.71 in 10.0 mi West 10.4 mph - N/A   Overcast
5:53 AM 35.6 °F 28.0 °F 28.4 °F 75% 29.71 in 10.0 mi West 10.4 mph - N/A   Overcast
6:14 AM 35.6 °F 28.0 °F 28.4 °F 75% 29.71 in 10.0 mi West 10.4 mph - N/A   Overcast
6:34 AM 35.6 °F 28.0 °F 28.4 °F 75% 29.71 in 10.0 mi West 10.4 mph - N/A   Overcast
6:53 AM 35.6 °F 27.1 °F 28.4 °F 75% 29.71 in 7.0 mi West 12.7 mph 17.3 mph N/A   Overcast
7:14 AM 35.6 °F 27.1 °F 30.2 °F 81% 29.71 in 10.0 mi West 12.7 mph - N/A   Overcast
7:34 AM 33.8 °F 24.8 °F 30.2 °F 87% 29.71 in 4.0 mi WSW 12.7 mph - N/A   Overcast
7:53 AM 33.8 °F 24.8 °F 30.2 °F 87% 29.71 in 3.0 mi West 12.7 mph - N/A   Overcast
8:14 AM 33.8 °F 25.3 °F 30.2 °F 87% 29.71 in 10.0 mi WSW 11.5 mph - N/A   Overcast
8:34 AM 33.8 °F 25.8 °F 30.2 °F 87% 29.72 in 10.0 mi West 10.4 mph - N/A   Overcast
8:53 AM 33.8 °F 24.8 °F 30.2 °F 87% 29.73 in 2.5 mi WNW 12.7 mph - N/A   Overcast
9:14 AM 33.8 °F 25.3 °F 28.4 °F 81% 29.73 in 4.0 mi WNW 11.5 mph 15.0 mph N/A   Overcast
9:34 AM 33.8 °F 22.8 °F 26.6 °F 75% 29.73 in 10.0 mi NW 18.4 mph - N/A   Overcast
9:53 AM 35.6 °F 25.2 °F 26.6 °F 70% 29.74 in 10.0 mi NW 18.4 mph 27.6 mph N/A   Mostly Cloudy
10:13 AM 33.8 °F 23.2 °F 26.6 °F 75% 29.75 in 10.0 mi NW 17.3 mph 27.6 mph N/A   Mostly Cloudy
10:34 AM 35.6 °F 24.8 °F 23.0 °F 60% 29.76 in 10.0 mi NW 19.6 mph - N/A   Mostly Cloudy
10:53 AM 33.8 °F 20.5 °F 21.2 °F 60% 29.77 in 10.0 mi WNW 27.6 mph 31.1 mph N/A   Overcast
11:14 AM 33.8 °F 22.2 °F 17.6 °F 52% 29.78 in 10.0 mi NW 20.7 mph 28.8 mph N/A   Overcast
11:33 AM 35.6 °F 24.2 °F 17.6 °F 48% 29.79 in 10.0 mi NW 21.9 mph 26.5 mph N/A   Mostly Cloudy
11:53 AM 33.8 °F 21.3 °F 15.8 °F 48% 29.79 in 10.0 mi NW 24.2 mph 27.6 mph N/A   Mostly Cloudy
12:14 PM 33.8 °F 22.8 °F 15.8 °F 48% 29.80 in 10.0 mi NW 18.4 mph 27.6 mph N/A   Mostly Cloudy
12:34 PM 33.8 °F 23.5 °F 17.6 °F 52% 29.81 in 10.0 mi NW 16.1 mph 27.6 mph N/A   Overcast
12:53 PM 33.8 °F 21.9 °F 17.6 °F 52% 29.81 in 10.0 mi NW 21.9 mph 31.1 mph N/A   Mostly Cloudy
1:14 PM 35.6 °F 25.2 °F 14.0 °F 41% 29.82 in 10.0 mi NW 18.4 mph 28.8 mph N/A   Mostly Cloudy
1:34 PM 35.6 °F 25.9 °F 12.2 °F 38% 29.82 in 10.0 mi NNW 16.1 mph 24.2 mph N/A   Scattered Clouds
1:53 PM 33.8 °F 23.2 °F 19.4 °F 56% 29.83 in 10.0 mi NW 17.3 mph 28.8 mph N/A   Mostly Cloudy
2:14 PM 35.6 °F 24.8 °F 14.0 °F 41% 29.83 in 10.0 mi NW 19.6 mph 26.5 mph N/A   Mostly Cloudy
2:33 PM 35.6 °F 24.8 °F 17.6 °F 48% 29.84 in 10.0 mi NW 19.6 mph 26.5 mph N/A   Mostly Cloudy
2:54 PM 33.8 °F 22.2 °F 17.6 °F 52% 29.84 in 10.0 mi WNW 20.7 mph 25.3 mph N/A   Scattered Clouds
3:13 PM 35.6 °F 24.2 °F 15.8 °F 44% 29.85 in 10.0 mi WNW 21.9 mph 25.3 mph N/A   Scattered Clouds
3:33 PM 33.8 °F 24.3 °F 21.2 °F 60% 29.85 in 10.0 mi WNW 13.8 mph 18.4 mph N/A   Scattered Clouds
3:54 PM 35.6 °F 24.0 °F 15.8 °F 44% 29.85 in 10.0 mi WNW 23.0 mph 26.5 mph N/A   Mostly Cloudy
4:13 PM 33.8 °F 21.9 °F 15.8 °F 48% 29.86 in 10.0 mi WNW 21.9 mph - N/A   Mostly Cloudy
4:34 PM 33.8 °F 22.8 °F 14.0 °F 44% 29.87 in 10.0 mi NW 18.4 mph 27.6 mph N/A   Scattered Clouds
4:53 PM 33.8 °F 23.9 °F 15.8 °F 48% 29.88 in 10.0 mi NW 15.0 mph 28.8 mph N/A   Mostly Cloudy
5:14 PM 33.8 °F 21.9 °F 10.4 °F 38% 29.88 in 10.0 mi NW 21.9 mph 27.6 mph N/A   Mostly Cloudy
5:34 PM 33.8 °F 22.5 °F 10.4 °F 38% 29.89 in 10.0 mi NW 19.6 mph 26.5 mph N/A   Mostly Cloudy
5:53 PM 32.0 °F 19.5 °F 10.4 °F 41% 29.90 in 10.0 mi NW 21.9 mph 27.6 mph N/A   Mostly Cloudy
6:14 PM 32.0 °F 20.1 °F 12.2 °F 44% 29.92 in 10.0 mi NW 19.6 mph 27.6 mph N/A   Overcast
6:34 PM 32.0 °F 21.2 °F 12.2 °F 44% 29.92 in 10.0 mi NW 16.1 mph 20.7 mph N/A   Mostly Cloudy
7:14 PM 30.2 °F 18.5 °F 15.8 °F 55% 29.95 in 10.0 mi WNW 17.3 mph 26.5 mph N/A   Scattered Clouds
7:33 PM 28.4 °F 17.5 °F 15.8 °F 59% 29.96 in 10.0 mi NW 13.8 mph 26.5 mph N/A   Mostly Cloudy
8:13 PM 28.4 °F 15.4 °F 12.2 °F 51% 29.98 in 10.0 mi NW 19.6 mph 24.2 mph N/A   Scattered Clouds
8:34 PM 28.4 °F 17.5 °F 12.2 °F 51% 29.99 in 10.0 mi NW 13.8 mph 19.6 mph N/A   Mostly Cloudy
8:53 PM 28.4 °F 17.5 °F 12.2 °F 51% 30.00 in 10.0 mi NW 13.8 mph - N/A   Mostly Cloudy
9:14 PM 28.4 °F 17.5 °F 10.4 °F 47% 30.01 in 10.0 mi NW 13.8 mph 20.7 mph N/A   Scattered Clouds
9:33 PM 28.4 °F 17.0 °F 8.6 °F 43% 30.01 in 10.0 mi NW 15.0 mph 19.6 mph N/A   Scattered Clouds
9:53 PM 28.4 °F 18.5 °F 6.8 °F 40% 30.02 in 10.0 mi NW 11.5 mph - N/A   Scattered Clouds
10:14 PM 26.6 °F 15.2 °F 10.4 °F 51% 30.02 in 10.0 mi WNW 13.8 mph - N/A   Scattered Clouds
10:33 PM 26.6 °F 17.5 °F 10.4 °F 51% 30.03 in 10.0 mi NW 9.2 mph - N/A   Scattered Clouds
10:54 PM 26.6 °F 16.2 °F 10.4 °F 51% 30.03 in 10.0 mi NW 11.5 mph - N/A   Mostly Cloudy
11:14 PM 26.6 °F 15.7 °F 8.6 °F 47% 30.03 in 10.0 mi NW 12.7 mph 20.7 mph N/A   Mostly Cloudy
11:33 PM 26.6 °F 14.3 °F 10.4 °F 51% 30.03 in 10.0 mi WNW 16.1 mph - N/A   Mostly Cloudy
11:54 PM 26.6 °F 16.8 °F 8.6 °F 47% 30.04 in 10.0 mi NW 10.4 mph - N/A   Mostly Cloudy